Ocala, FL

11:51 AM EDT on June 26, 2017 (GMT -0400)
Ocala Regional-Taylor

Weather History for KOCF - November, 2013

Change the Weather History Date:

Saturday, November 16, 2013

  Actual Average Record
Temperature  
Mean Temperature 66 °F -  
Max Temperature 71 °F 73 °F 86 °F (2011)
Min Temperature 62 °F 51 °F 35 °F (2007)
Cooling Degree Days 2    
Growing Degree Days 16 (Base 50)    
Moisture  
Dew Point 59 °F    
Average Humidity 79    
Maximum Humidity 94    
Minimum Humidity 73    
Precipitation  
Precipitation 0.02 in - - ()
Sea Level Pressure  
Sea Level Pressure 30.11 in    
Wind  
Wind Speed 3 mph (NE)    
Max Wind Speed 6 mph    
Max Gust Speed -    
Visibility 8 miles    
Events Rain    
Averages and records for this station are not official NWS values.
T = Trace of Precipitation, MM = Missing Value Source: NWS Daily Summary

Daily Weather History Graph

Daily Weather History Graph

Search for Another Location

Airport or City:

Trip Planner

Search our weather history database for the weather conditions in past years. The results will help you decide how hot, cold, wet, or windy it might be!

Date:

Astronomy

Nov. 16, 2013 Rise Set
Actual Time 6:53 AM EST 5:33 PM EST
Civil Twilight 6:28 AM EST 5:58 PM EST
Nautical Twilight 5:59 AM EST 6:27 PM EST
Astronomical Twilight 5:31 AM EST 6:55 PM EST
Moon 5:05 PM EST (11/16) 5:52 AM EST (11/16)
Length of Visible Light 11h 30m
Length of Day
10h 40m
Waxing Gibbous, 99% of the Moon is Illuminated
Nov 16
Waxing Gibbous
Nov 17
Full
Nov 25
Last Quarter
Dec 2
New
Dec 9
First Quarter

Hourly Weather History & Observations

Time (EST) Temp. Dew Point Humidity Pressure Visibility Wind Dir Wind Speed Gust Speed Precip Events Conditions
12:15 AM 64.4 °F 57.2 °F 77% 30.11 in 10.0 mi Calm Calm - N/A   Partly Cloudy
12:35 AM 62.6 °F 57.2 °F 82% 30.11 in 10.0 mi North 3.5 mph - N/A   Clear
12:55 AM 62.6 °F 55.4 °F 77% 30.10 in 10.0 mi Calm Calm - N/A   Clear
1:15 AM 62.6 °F 57.2 °F 82% 30.10 in 10.0 mi NNE 3.5 mph - N/A   Clear
1:35 AM 62.6 °F 57.2 °F 82% 30.09 in 10.0 mi NNE 4.6 mph - N/A   Clear
1:55 AM 62.6 °F 57.2 °F 82% 30.09 in 10.0 mi NNE 4.6 mph - N/A   Clear
2:15 AM 62.6 °F 57.2 °F 82% 30.09 in 10.0 mi NNE 4.6 mph - N/A   Clear
2:35 AM 62.6 °F 57.2 °F 82% 30.08 in 10.0 mi NNE 3.5 mph - N/A   Clear
2:55 AM 62.6 °F 55.4 °F 77% 30.08 in 10.0 mi NNE 4.6 mph - N/A   Clear
3:15 AM 62.6 °F 55.4 °F 77% 30.08 in 10.0 mi NNE 4.6 mph - N/A   Clear
3:35 AM 62.6 °F 55.4 °F 77% 30.09 in 10.0 mi NNE 4.6 mph - N/A   Partly Cloudy
3:55 AM 62.6 °F 55.4 °F 77% 30.09 in 10.0 mi NNE 4.6 mph - N/A   Mostly Cloudy
4:15 AM 62.6 °F 55.4 °F 77% 30.09 in 10.0 mi NNE 5.8 mph - N/A   Scattered Clouds
4:35 AM 62.6 °F 55.4 °F 77% 30.09 in 10.0 mi NNE 4.6 mph - N/A   Clear
4:55 AM 62.6 °F 55.4 °F 77% 30.10 in 10.0 mi NNE 3.5 mph - N/A   Partly Cloudy
5:15 AM 62.6 °F 55.4 °F 77% 30.10 in 10.0 mi NNE 5.8 mph - N/A   Partly Cloudy
5:35 AM 62.6 °F 55.4 °F 77% 30.10 in 10.0 mi NNE 5.8 mph - N/A   Clear
5:55 AM 62.6 °F 55.4 °F 77% 30.11 in 10.0 mi NNE 5.8 mph - N/A   Clear
6:15 AM 62.6 °F 55.4 °F 77% 30.11 in 10.0 mi NNE 4.6 mph - N/A   Clear
6:35 AM 62.6 °F 55.4 °F 77% 30.12 in 10.0 mi NNE 4.6 mph - N/A   Clear
6:50 AM 62.6 °F 60.8 °F 94% 30.13 in 10.0 mi NNE 5.8 mph - N/A   Partly Cloudy
7:55 AM 62.6 °F 60.8 °F 94% 30.14 in 7.0 mi NE 4.6 mph - N/A   Mostly Cloudy
8:50 AM 64.4 °F 57.2 °F 77% 30.16 in 7.0 mi ENE 3.5 mph - N/A   Overcast
9:50 AM 66.2 °F 59.0 °F 78% 30.17 in 7.0 mi NE 4.6 mph - N/A   Overcast
10:50 AM 66.2 °F 60.8 °F 83% 30.18 in 4.0 mi NNE 3.5 mph - N/A   Overcast
11:50 AM 68.0 °F 60.8 °F 78% 30.16 in 5.0 mi NE 3.5 mph - N/A   Overcast
12:50 PM 71.6 °F 62.6 °F 73% 30.13 in 5.0 mi ENE 4.6 mph - N/A Rain Light Rain
1:50 PM 71.6 °F 62.6 °F 73% 30.10 in 5.0 mi Calm Calm - N/A Rain Light Rain
2:12 PM 71.6 °F 62.6 °F 73% 30.10 in 2.0 mi Calm Calm - N/A Rain Light Rain
2:50 PM 71.6 °F 62.6 °F 73% 30.09 in 5.0 mi Calm Calm - N/A   Overcast
3:50 PM 71.6 °F 62.6 °F 73% 30.09 in 2.0 mi Calm Calm - N/A Rain Rain
4:50 PM 69.8 °F 62.6 °F 78% 30.09 in 4.0 mi Calm Calm - N/A Rain Rain
5:50 PM 69.8 °F 62.6 °F 78% 30.10 in 3.0 mi Calm Calm - N/A Rain Rain
6:50 PM 69.8 °F 62.6 °F 78% 30.11 in 3.0 mi ENE 3.5 mph - N/A   Overcast
7:55 PM 66.2 °F 60.8 °F 83% 30.12 in 10.0 mi East 3.5 mph - 0.01 in   Mostly Cloudy
8:15 PM 66.2 °F 60.8 °F 83% 30.13 in 10.0 mi ENE 4.6 mph - N/A   Overcast
8:35 PM 68.0 °F 60.8 °F 78% 30.12 in 10.0 mi NE 5.8 mph - N/A   Mostly Cloudy
8:55 PM 68.0 °F 62.6 °F 83% 30.13 in 10.0 mi ENE 4.6 mph - N/A   Overcast
9:15 PM 68.0 °F 62.6 °F 83% 30.13 in 10.0 mi ENE 4.6 mph - N/A   Mostly Cloudy
9:35 PM 68.0 °F 62.6 °F 83% 30.13 in 10.0 mi NE 5.8 mph - N/A   Overcast
9:55 PM 68.0 °F 62.6 °F 83% 30.13 in 10.0 mi East 3.5 mph - N/A   Mostly Cloudy
10:15 PM 68.0 °F 60.8 °F 78% 30.13 in 10.0 mi Calm Calm - N/A   Overcast
10:35 PM 68.0 °F 60.8 °F 78% 30.13 in 10.0 mi ENE 3.5 mph - N/A   Mostly Cloudy
10:55 PM 68.0 °F 60.8 °F 78% 30.13 in 10.0 mi East 3.5 mph - N/A   Overcast
11:15 PM 68.0 °F 60.8 °F 78% 30.13 in 10.0 mi Calm Calm - N/A   Overcast
11:35 PM 66.2 °F 60.8 °F 83% 30.11 in 10.0 mi ENE 4.6 mph - 0.01 in   Overcast
11:55 PM 66.2 °F 60.8 °F 83% 30.11 in 10.0 mi ENE 3.5 mph - 0.01 in   Overcast